Find Starlink 2050

NORAD ID: 47357 Int'l Des: 2021-005 Owner: SPXS Country: US Constellation: starlink operational
LEOCIRCULARSTARLINK_TYPE

Live Position

Loading 3D Globe...

About Starlink 2050

Description loading...

Upcoming Passes

Passes for default location (London). Set your location on the main map for personalized predictions.

Altitude History

Loading altitude history...

Two-Line Element Set

1 47357U 21005J 26122.41361257 .00003797 00000-0 14033-3 0 9996
2 47357 53.1590 172.8970 0001252 88.0238 272.0906 15.30181923291252
Epoch: May 2, 2026 • Age: 22 hours

Current Status

Altitude 477.3 km
Velocity 7.63 km/s
Sub-Earth Point 35.23°N, 141.97°W
Launch Date Jan 20, 2021
Age 5.2 years
Type internet

Technical Details

Classification Payload
Mass 260.00 kg
Dry Mass 248.00 kg
Total Mass 260.00 kg
Length 0.20 m
Diameter 2.80 m
Span 9.00 m
Shape Box + pan
Manufacturer SPXS
Bus Type Starlink
Phase Status In Orbit
Owner/State SPXS/US

Most Searched